Measurement date,Total daily rainfall,Maximum daily air temperature,Minimum daily air temperature
Date ,Rainfall,Air temperature,Air temperature
Units: Year month day,Units: millimetre,Units: degree Celsius,Units: degree Celsius
2011-09-01,0,19.30,9.60
2011-09-02,0,25.20,11.20
2011-09-03,0,23.70,13.50
2011-09-04,6.6,21.00,13.10
2011-09-05,3,19.20,10.10
2011-09-06,0.9,18.80,13.10
2011-09-07,0,17.50,11.10
2011-09-08,0.1,19.40,11.90
2011-09-09,0,24.10,12.40
2011-09-10,3.7,24.40,16.20
2011-09-11,1.6,20.90,14.20
2011-09-12,0,21.60,13.80
2011-09-13,0.5,18.80,11.40
2011-09-14,0,18.60,8.60
2011-09-15,0.1,18.00,6.00
2011-09-16,0,19.40,11.10
2011-09-17,2.4,18.80,11.80
2011-09-18,0.2,16.20,5.30
2011-09-19,0,19.10,8.30
2011-09-20,9.4,19.80,13.90
2011-09-21,0.1,17.30,11.30
2011-09-22,0,17.40,9.20
2011-09-23,0,18.70,7.70
2011-09-24,0,20.00,7.70
2011-09-25,0.6,21.80,9.90
2011-09-26,0,19.90,15.00
2011-09-27,0,21.40,10.20
2011-09-28,0,24.60,11.30
2011-09-29,0,27.50,14.80
2011-09-30,0,28.00,12.40
2011-10-01,0,27.60,11.60
2011-10-02,0,28.50,10.70
2011-10-03,0,27.40,16.00
2011-10-04,0,18.70,12.30
2011-10-05,2.7,21.30,13.50
2011-10-06,0.6,15.10,9.10
2011-10-07,0.1,15.80,6.40
2011-10-08,15.7,16.20,7.50
2011-10-09,0.2,18.60,10.50
2011-10-10,0,20.50,14.50
2011-10-11,4.7,19.40,14.90
2011-10-12,6.7,16.80,10.90
2011-10-13,0,13.90,10.40
2011-10-14,0,15.00,11.10
2011-10-15,0,16.60,4.10
2011-10-16,0,17.00,2.80
2011-10-17,1.8,15.00,5.90
2011-10-18,0,12.10,5.60
2011-10-19,1.5,11.40,3.90
2011-10-20,0,11.00,-0.10
2011-10-21,0,15.00,2.50
2011-10-22,0,13.40,6.40
2011-10-23,0,19.10,8.30
2011-10-24,0.9,14.70,10.50
2011-10-25,0.4,15.60,11.10
2011-10-26,0.3,14.30,4.90
2011-10-27,1.1,13.10,8.40
2011-10-28,0.2,14.20,5.10
2011-10-29,0.4,15.20,6.30
2011-10-30,0,17.40,12.30
2011-10-31,0,16.80,13.50
2011-11-01,0,14.50,11.50
2011-11-02,0.2,15.20,6.70
2011-11-03,18.5,16.70,10.80
2011-11-04,2.1,15.80,11.80
2011-11-05,0.1,13.80,8.10
2011-11-06,0.2,12.10,9.30
2011-11-07,0,11.60,10.40
2011-11-08,0.7,11.20,10.10
2011-11-09,0,14.20,9.30
2011-11-10,0,14.00,9.10
2011-11-11,0,11.40,8.80
2011-11-12,0,13.50,9.00
2011-11-13,0,15.30,10.30
2011-11-14,0,9.80,7.40
2011-11-15,0,11.60,5.50
2011-11-16,0,10.20,0.50
2011-11-17,0,12.70,2.90
2011-11-18,0,13.80,7.10
2011-11-19,0.1,13.10,3.90
2011-11-20,0.2,11.00,1.10
2011-11-21,0,10.00,4.00
2011-11-22,2.4,10.30,5.90
2011-11-23,0,9.40,0.60
2011-11-24,1.2,12.20,2.80
2011-11-25,0,10.60,7.60
2011-11-26,0,12.70,4.20
2011-11-27,0.3,12.70,8.00
2011-11-28,0,12.40,-0.80
2011-11-29,3.4,13.10,1.60
2011-11-30,0.5,10.60,4.30
2011-12-01,0.1,9.50,5.70
2011-12-02,1.9,10.00,-1.00
2011-12-03,0.2,9.60,0.20
2011-12-04,1.1,7.00,4.40
2011-12-05,0.4,5.30,0.10
2011-12-06,0.9,6.60,0.00
2011-12-07,0.2,6.80,1.70
2011-12-08,5.3,12.00,2.10
2011-12-09,0.6,6.10,2.00
2011-12-10,0.3,4.70,-3.00
2011-12-11,1.7,7.40,-1.30
2011-12-12,6.9,10.90,0.60
2011-12-13,0.1,6.40,1.60
2011-12-14,0.3,4.90,1.50
2011-12-15,3.1,5.90,0.90
2011-12-16,10.5,3.20,1.70
2011-12-17,4.9,4.30,-2.70
2011-12-18,1.2,3.40,-3.10
2011-12-19,3.3,6.20,-4.70
2011-12-20,2.3,5.60,0.50
2011-12-21,0.1,10.80,3.20
2011-12-22,0,11.20,5.10
2011-12-23,6.8,10.70,5.70
2011-12-24,0.3,8.60,1.30
2011-12-25,0,11.30,2.00
2011-12-26,0,12.80,8.40
2011-12-27,0,9.90,6.90
2011-12-28,0.5,9.80,6.70
2011-12-29,2.4,7.70,4.20
2011-12-30,6.9,10.10,2.00
2011-12-31,0.1,11.70,2.40
2012-01-01,0.9,11.20,9.20
2012-01-02,6.2,11.80,3.20
2012-01-03,5.7,12.70,2.70
2012-01-04,3.3,10.30,3.20
2012-01-05,0.5,7.80,4.50
2012-01-06,0.1,9.50,1.80
2012-01-07,0,9.00,2.10
2012-01-08,0.1,8.90,6.40
2012-01-09,0,10.80,5.10
2012-01-10,0,9.30,2.20
2012-01-11,0,10.80,4.60
2012-01-12,0.8,11.20,5.20
2012-01-13,0,5.40,0.30
2012-01-14,0,4.30,-3.90
2012-01-15,0.1,5.00,-4.60
2012-01-16,0,6.80,-2.70
2012-01-17,0.9,6.50,-4.60
2012-01-18,2.3,10.30,-2.80
2012-01-19,1.3,8.80,5.00
2012-01-20,4.5,10.20,2.90
2012-01-21,0.5,10.10,3.80
2012-01-22,0.1,10.40,4.00
2012-01-23,1,7.40,2.30
2012-01-24,6.2,8.20,-0.60
2012-01-25,1.5,8.90,1.30
2012-01-26,0.6,8.50,5.40
2012-01-27,1,7.20,0.50
2012-01-28,0.6,6.80,-1.60
2012-01-29,0.3,3.60,-2.90
2012-01-30,0.6,2.50,-1.00
2012-01-31,0,3.10,0.00
2012-02-01,0,2.70,-2.90
2012-02-02,0,1.30,-3.90
2012-02-03,0,2.10,-5.90
2012-02-04,0,0.60,-6.80
2012-02-05,1.6,0.10,-4.80
2012-02-06,3.3,2.30,-1.40
2012-02-07,0.1,0.90,-1.00
2012-02-08,0,0.20,-7.70
2012-02-09,1.7,-0.20,-1.10
2012-02-10,0,1.00,-4.60
2012-02-11,0,0.40,-13.50
2012-02-12,1.8,3.70,-11.20
2012-02-13,0.8,5.30,-0.10
2012-02-14,0.2,6.90,1.50
2012-02-15,0.3,8.70,3.30
2012-02-16,0,9.90,4.20
2012-02-17,0,11.40,3.50
2012-02-18,1.7,9.50,7.10
2012-02-19,0,4.90,0.00
2012-02-20,0.1,8.00,-3.40
2012-02-21,0,11.50,1.30
2012-02-22,1.5,11.00,5.10
2012-02-23,0,17.00,7.80
2012-02-24,0,14.30,8.20
2012-02-25,0,9.30,1.10
2012-02-26,0,11.30,1.30
2012-02-27,0.3,11.00,3.60
2012-02-28,0.1,12.20,7.60
2012-02-29,0,11.10,8.20
2012-03-01,0.1,12.90,3.30
2012-03-02,0,10.50,-0.30
2012-03-03,0,13.30,4.70
2012-03-04,23.4,8.10,3.60
2012-03-05,13.3,5.40,0.90
2012-03-06,1.3,6.80,3.40
2012-03-07,3.3,10.00,2.80
2012-03-08,0,10.90,1.00
2012-03-09,0,12.90,3.40
2012-03-10,0,14.70,4.90
2012-03-11,0,13.70,2.40
2012-03-12,0,8.00,3.30
2012-03-13,0,7.20,5.60
2012-03-14,0.1,8.70,5.30
2012-03-15,0,16.20,1.00
2012-03-16,0.1,9.00,3.40
2012-03-17,3.6,10.00,4.60
2012-03-18,2,7.90,5.00
2012-03-19,0,11.80,-2.60
2012-03-20,0,15.70,1.40
2012-03-21,0,14.10,2.00
2012-03-22,0,15.60,0.50
2012-03-23,0,16.70,5.70
2012-03-24,0.1,15.90,1.70
2012-03-25,0.1,12.90,1.20
2012-03-26,0,16.40,0.10
2012-03-27,0,17.60,-0.30
2012-03-28,0,19.20,0.40
2012-03-29,0,15.10,1.80
2012-03-30,0,13.20,3.40
2012-03-31,0,10.20,3.80
2012-04-01,0,12.90,0.40
2012-04-02,0,12.70,0.60
2012-04-03,17.7,12.40,4.50
2012-04-04,9.5,7.50,4.80
2012-04-05,0,9.60,4.70
2012-04-06,2.5,10.10,-3.20
2012-04-07,0.1,8.60,5.20
2012-04-08,4.5,12.00,1.80
2012-04-09,3.8,11.30,7.20
2012-04-10,0.2,12.90,4.80
2012-04-11,2.9,12.30,0.60
2012-04-12,3.4,11.20,3.90
2012-04-13,2.8,10.10,3.20
2012-04-14,0.4,10.50,-0.60
2012-04-15,0.1,9.20,2.10
2012-04-16,3.5,9.70,-0.10
2012-04-17,2.9,13.20,3.50
2012-04-18,5.6,9.70,3.20
2012-04-19,4.5,9.90,6.10
2012-04-20,2.3,13.10,5.90
2012-04-21,3.9,11.10,2.30
2012-04-22,2.6,13.10,3.90
2012-04-23,6.7,12.80,3.50
2012-04-24,1,9.90,6.20
2012-04-25,17,12.00,3.80
2012-04-26,2.3,14.20,6.70
2012-04-27,2.2,10.60,7.90
2012-04-28,14.1,8.20,7.30
2012-04-29,2.6,14.00,5.00
2012-04-30,0.2,17.60,6.90
2012-05-01,1.1,12.00,9.90
2012-05-02,5.2,12.60,7.90
2012-05-03,2.2,7.90,6.50
2012-05-04,0.5,9.20,6.30
2012-05-05,0.3,9.60,3.00
2012-05-06,0.9,9.40,2.40
2012-05-07,7,12.80,2.00
2012-05-08,5.2,17.20,9.10
2012-05-09,8.1,16.70,9.00
2012-05-10,0.6,19.60,11.20
2012-05-11,1.6,14.40,10.30
2012-05-12,0,13.10,4.50
2012-05-13,2.5,16.20,3.30
2012-05-14,2.2,12.80,6.70
2012-05-15,2,11.40,3.70
2012-05-16,0,13.00,0.70
2012-05-17,0.2,13.70,3.70
2012-05-18,0.9,14.70,7.70
2012-05-19,0,11.00,10.00
2012-05-20,0,10.70,8.10
2012-05-21,0,14.00,8.30
2012-05-22,0,17.60,8.80
2012-05-23,0,19.20,9.50
2012-05-24,0,22.40,9.10
2012-05-25,0,22.50,10.20
2012-05-26,0,21.70,11.60
2012-05-27,0,23.30,12.00
2012-05-28,0,24.30,8.40
2012-05-29,0,18.20,10.60
2012-05-30,0.6,22.50,10.00
2012-05-31,3.8,16.80,12.90
2012-06-01,0.1,15.10,11.70
2012-06-02,8.4,16.30,7.60
2012-06-03,10.8,11.10,8.80
2012-06-04,0.2,13.80,6.90
2012-06-05,4.8,16.10,3.50
2012-06-06,10,20.00,10.10
2012-06-07,10.8,17.70,10.50
2012-06-08,3.1,14.00,11.80
2012-06-09,0,16.00,9.40
2012-06-10,1.3,18.30,6.30
2012-06-11,0.8,11.60,10.80
2012-06-12,0,14.20,10.20
2012-06-13,6,14.30,4.20
2012-06-14,7.7,17.20,9.20
2012-06-15,2.6,19.00,10.10
2012-06-16,0,19.10,10.30
2012-06-17,4.3,18.70,11.60
2012-06-18,0.8,16.90,11.00
2012-06-19,0,20.10,8.60
2012-06-20,7.2,20.20,9.40
2012-06-21,6.2,20.80,10.70
2012-06-22,1.1,16.90,10.50
2012-06-23,12.5,18.80,10.30
2012-06-24,2.5,18.80,10.30
2012-06-25,0,18.50,9.90
2012-06-26,0,22.00,8.80
2012-06-27,0.2,22.60,16.00
2012-06-28,0.1,26.40,15.60
2012-06-29,0,21.50,11.90
2012-06-30,1.3,21.60,14.00
2012-07-01,0.6,18.40,10.00
2012-07-02,3,18.30,10.70
2012-07-03,5,21.50,13.90
2012-07-04,0.8,23.70,15.80
2012-07-05,9.3,22.90,14.70
2012-07-06,2.2,20.10,13.90
2012-07-07,15.9,20.10,11.60
2012-07-08,3.4,17.10,12.80
2012-07-09,2.8,19.60,12.90
2012-07-10,6.4,16.50,13.20
2012-07-11,0.3,19.00,10.10
2012-07-12,8,19.10,7.40
2012-07-13,8.1,16.30,12.30
2012-07-14,0,16.70,12.50
2012-07-15,0.1,18.90,9.60
2012-07-16,7.9,17.50,8.90
2012-07-17,0,21.40,12.40
2012-07-18,12.5,19.60,15.40
2012-07-19,2.7,15.90,12.20
2012-07-20,2.2,15.90,10.60
2012-07-21,0,19.30,9.60
2012-07-22,0,22.90,11.30
2012-07-23,0,26.50,11.90
2012-07-24,0,27.60,13.50
2012-07-25,0,25.00,13.00
2012-07-26,0,24.30,13.40
2012-07-27,0,21.50,13.50
2012-07-28,0,20.20,11.50
2012-07-29,4.9,19.90,8.60
2012-07-30,4.1,17.00,7.10
2012-07-31,1.4,19.00,8.90
2012-08-01,0,22.80,11.50
2012-08-02,5.7,22.30,13.50
2012-08-03,1,21.20,12.10
2012-08-04,4.6,20.80,11.90
2012-08-05,16.2,20.70,10.30
2012-08-06,1.5,21.10,11.40
2012-08-07,3.7,20.60,9.80
2012-08-08,0,21.80,10.70
2012-08-09,0,23.10,11.10
2012-08-10,0.1,22.90,11.00
2012-08-11,0,21.80,11.80
2012-08-12,0,24.00,13.80
2012-08-13,7,23.60,14.60
2012-08-14,0,24.60,15.70
2012-08-15,1.9,25.50,16.10
2012-08-16,0,23.60,14.00
2012-08-17,0,26.00,16.50
2012-08-18,0,29.90,20.10
2012-08-19,0,27.10,15.10
2012-08-20,0.1,23.70,13.70
2012-08-21,0.7,21.70,13.20
2012-08-22,0,21.50,11.70
2012-08-23,0,20.80,10.40
2012-08-24,0.5,21.80,12.90
2012-08-25,19.8,22.30,15.00
2012-08-26,0.1,18.80,13.70
2012-08-27,0.8,20.00,10.80
2012-08-28,0,21.60,13.30
2012-08-29,4.9,19.70,13.00
2012-08-30,5.5,17.50,11.50
2012-08-31,0.3,16.50,7.90
2012-09-01,0.2,20.30,11.00
2012-09-02,0,20.10,10.80
2012-09-03,0,22.50,9.60
2012-09-04,0,21.60,11.80
2012-09-05,0,17.30,8.50
2012-09-06,0.1,20.40,5.80
2012-09-07,0,24.70,12.00
2012-09-08,0,25.00,10.80
2012-09-09,0,27.30,8.70
2012-09-10,2.1,22.10,15.10
2012-09-11,0.1,17.20,11.70
2012-09-12,8.4,16.40,5.60
2012-09-13,0.3,16.50,7.20
2012-09-14,0.1,18.30,10.70
2012-09-15,0,19.60,7.20
2012-09-16,0,18.20,9.40
2012-09-17,0,18.30,7.80
2012-09-18,0,16.30,8.90
2012-09-19,0.1,15.60,5.10
2012-09-20,0,16.20,5.40
2012-09-21,6,13.70,10.40
2012-09-22,0,14.30,5.70
2012-09-23,19.9,13.20,4.00
2012-09-24,10.7,14.90,8.40
2012-09-25,0.3,16.50,8.20
2012-09-26,0.6,15.90,9.70
2012-09-27,0.1,15.70,10.40
2012-09-28,0.3,16.20,6.80
2012-09-29,0,14.70,6.60
2012-09-30,2.4,17.00,4.50
2012-10-01,0.1,17.20,11.10
2012-10-02,3.2,17.70,9.20
2012-10-03,0,15.10,8.90
2012-10-04,13.1,14.80,3.40
2012-10-05,8.9,12.50,9.20
2012-10-06,0.1,14.00,5.50
2012-10-07,0,12.50,2.90
2012-10-08,0.1,14.70,5.20
2012-10-09,0.1,13.10,2.60
2012-10-10,0,15.00,5.00
2012-10-11,0,15.00,5.00
2012-10-12,0.2,13.50,10.50
2012-10-13,3.4,11.20,3.90
2012-10-14,1.6,11.50,2.90
2012-10-15,3.1,11.30,1.60
2012-10-16,9.4,13.40,6.90
2012-10-17,1.3,16.50,5.70
2012-10-18,0.2,15.50,11.60
2012-10-19,10.3,12.90,9.50
2012-10-20,6.3,11.90,7.90
2012-10-21,4.4,12.70,7.30
2012-10-22,0.3,14.20,9.60
2012-10-23,0.1,13.80,11.00
2012-10-24,1,14.30,11.90
2012-10-25,0.1,11.40,10.20
2012-10-26,6.2,8.80,4.00
2012-10-27,5.6,7.90,1.90
2012-10-28,5.3,8.10,0.10
2012-10-29,2.7,11.30,3.80
2012-10-30,0.1,9.90,3.50
2012-10-31,11.3,11.60,3.80
2012-11-01,1.5,8.30,5.00
2012-11-02,0,8.70,2.30
2012-11-03,1.5,7.30,0.80
2012-11-04,11,6.30,0.90
2012-11-05,0,15.00,5.00
2012-11-06,4.2,8.80,-1.70
2012-11-07,0.1,9.60,0.80
2012-11-08,0,10.70,5.90
2012-11-09,5.6,10.60,7.00
2012-11-10,3,8.80,7.20
2012-11-11,0.1,9.40,-0.40
2012-11-12,2.6,10.70,1.40
2012-11-13,0.1,14.10,5.50
2012-11-14,0.3,13.20,10.30
2012-11-15,0,6.90,2.50
2012-11-16,0.2,10.80,3.30
2012-11-17,0.2,11.50,5.50
2012-11-18,0.1,7.70,-2.20
2012-11-19,2.1,11.00,0.50
2012-11-20,4.7,12.90,6.00
2012-11-21,13.4,9.70,8.90
2012-11-22,11.7,13.10,3.90
2012-11-23,0.2,8.90,4.00
2012-11-24,20.5,11.10,-0.60
2012-11-25,8.4,8.90,0.70
2012-11-26,4.7,9.80,5.30
2012-11-27,7.9,7.60,6.00
2012-11-28,4,7.50,3.90
2012-11-29,2.3,5.70,2.50
2012-11-30,1.4,3.90,-1.70
2012-12-01,2.1,4.20,-3.30
2012-12-02,8.7,4.50,-2.70
2012-12-03,0,7.80,-2.80
2012-12-04,2.3,5.50,0.80
2012-12-05,0.7,3.10,0.60
2012-12-06,13,3.40,-4.20
2012-12-07,4.8,5.50,-3.30
2012-12-08,0,6.70,0.30
2012-12-09,1.5,8.90,0.20
2012-12-10,0.5,4.80,2.50
2012-12-11,0.1,3.70,-1.80
2012-12-12,0,0.10,-3.30
2012-12-13,0.3,5.30,-5.70
2012-12-14,14.5,9.10,-4.40
2012-12-15,0.1,9.80,5.30
2012-12-16,0,7.80,2.40
2012-12-17,2.1,7.30,2.70
2012-12-18,0.6,6.70,4.10
2012-12-19,7.3,6.80,3.50
2012-12-20,6.4,7.30,4.80
2012-12-21,1.7,7.80,5.40
2012-12-22,16.4,13.10,3.90
2012-12-23,3.2,10.90,6.80
2012-12-24,4.1,11.50,5.00
2012-12-25,1.3,8.30,5.40
2012-12-26,3.1,8.70,2.50
2012-12-27,2.9,6.40,3.60
2012-12-28,1.7,11.20,2.50
2012-12-29,2.5,11.20,5.00
2012-12-30,0,10.70,3.50
2012-12-31,1.3,10.90,4.00
2013-01-01,0,6.00,2.50
2013-01-02,2.5,9.70,1.50
2013-01-03,0,10.90,3.00
2013-01-04,0,9.80,6.70
2013-01-05,0,10.20,4.20
2013-01-06,0.2,8.00,1.40
2013-01-07,0,8.40,2.30
2013-01-08,6.1,10.00,5.90
2013-01-09,0.2,6.70,3.20
2013-01-10,1.7,3.80,-1.20
2013-01-11,0.1,4.20,-0.80
2013-01-12,0,3.70,-0.90
2013-01-13,0.2,3.00,-3.00
2013-01-14,3.3,0.80,-2.40
2013-01-15,1.7,1.20,-4.80
2013-01-16,2.1,-3.50,-12.40
2013-01-17,1.7,0.00,-12.50
2013-01-18,0.1,0.30,-9.80
2013-01-19,0.1,0.20,-2.00
2013-01-20,0.7,0.90,-1.00
2013-01-21,1.2,-0.30,-2.40
2013-01-22,2.3,2.40,-8.80
2013-01-23,0,1.20,-4.70
2013-01-24,0,1.30,-0.40
2013-01-25,3.3,0.90,-7.70
2013-01-26,12.2,9.00,-4.60
2013-01-27,0,9.00,0.60
2013-01-28,1.6,9.50,0.70
2013-01-29,6.6,13.70,2.20
2013-01-30,1.3,10.70,8.00
2013-01-31,0,9.60,4.30
2013-02-01,3.4,6.70,4.70
2013-02-02,1.3,4.60,0.80
2013-02-03,0.1,9.60,-1.10
2013-02-04,0.2,9.50,2.00
2013-02-05,4,4.80,0.30
2013-02-06,6.9,4.40,0.10
2013-02-07,0.6,4.00,0.30
2013-02-08,2.5,4.60,-0.90
2013-02-09,0.7,5.50,-1.90
2013-02-10,1.3,2.80,-0.70
2013-02-11,0,2.40,0.30
2013-02-12,0,1.60,0.50
2013-02-13,11.9,4.30,-2.00
2013-02-14,1.4,9.00,-0.80
2013-02-15,0,8.60,2.80
2013-02-16,0,8.90,1.60
2013-02-17,0,8.20,-0.10
2013-02-18,0,6.70,0.10
2013-02-19,0.2,5.60,-4.30
2013-02-20,0,2.50,-2.60
2013-02-21,0,1.70,0.30
2013-02-22,0,1.30,-0.30
2013-02-23,0.2,2.20,-0.80
2013-02-24,0.5,2.70,0.10
2013-02-25,0.2,4.20,1.10
2013-02-26,0,4.50,2.40
2013-02-27,0,6.20,1.80
